Flag for Russia Weather past 2 weeks in Yakutsk, Russia

Now
23 °F

Sunny.


Feels Like: 14 °F
Forecast: 21 / 35 °F
Wind: 8 mph from Northwest

Location: Jakutsk

Current Time: Oct 2, 2014 at 10:06:31 AM

Latest Report: Oct 2, 2014 at 9:30 AM


Visibility: 10 mi

Pressure: 30.04 "Hg

Humidity: 74%

Dew point: 16 °F

Location of YakutskLocation

Historic Weather in Yakutsk — Graph

°F

Yakutsk temperature yesterday

Maximum temperature yesterday: 39 °F (at 1:00 PM)
Minimum temperature yesterday: 21 °F (at 7:30 AM)
Average temperature yesterday: 30 °F

Past Weeks' High & Low Weather Summary

 TemperatureHumidityPressure
High59 °F (Sep 21, 1:30 PM)100% (Sep 21, 3:30 AM)30.24 "Hg (Sep 21, 3:30 AM)
Low18 °F (Oct 2, 6:30 AM)31% (Sep 21, 1:30 PM)29.36 "Hg (Sep 26, 12:00 AM)
Average35 °F73%29.86 "Hg
* Reported Sep 17 9:00 AM — Oct 2 9:00 AM, Yakutsk, Weather by CustomWeather, © 2014

Note: Actual official high and low records may vary slightly from our data, if they occured in-between our weather recording intervals... More about our weather records

Advertising

Yakutsk weather history for previous 24 hours

 ConditionsComfort  
Time TempWeatherWind HumidityBarometerVisibility
9:00 AM
Oct 2
21 °FSunny.6 mph74%30.04 "Hg10 mi
8:30 AM19 °FSunny.8 mph79%30.04 "Hg10 mi
8:00 AM18 °FClear.6 mph86%30.04 "Hg10 mi
7:30 AM18 °FClear.6 mph86%30.04 "Hg10 mi
6:30 AM18 °FClear.6 mph86%30.04 "Hg10 mi
6:00 AM19 °FClear.6 mph79%30.04 "Hg10 mi
5:30 AM19 °FClear.6 mph79%30.01 "Hg10 mi
5:00 AM19 °FClear.6 mph86%30.01 "Hg10 mi
4:30 AM21 °FClear.3 mph80%30.01 "Hg10 mi
4:00 AM21 °FClear.3 mph80%30.01 "Hg10 mi
3:30 AM21 °FClear.3 mph80%30.01 "Hg10 mi
3:00 AM23 °FClear.3 mph74%30.01 "Hg10 mi
2:30 AM23 °FClear.3 mph74%30.01 "Hg10 mi
2:00 AM23 °FClear.3 mph74%30.01 "Hg10 mi
1:30 AM23 °FClear.6 mph74%30.01 "Hg10 mi
1:00 AM25 °FClear.6 mph69%30.01 "Hg10 mi
12:30 AM25 °FClear.6 mph69%30.01 "Hg10 mi
12:00 AM25 °FClear.6 mph69%30.01 "Hg10 mi
11:30 PM
Oct 1
27 °FClear.6 mph64%30.01 "Hg10 mi
11:00 PM27 °FClear.8 mph64%30.01 "Hg10 mi
10:30 PM27 °FClear.8 mph64%30.01 "Hg10 mi
10:00 PM28 °FClear.6 mph64%30.01 "Hg10 mi
9:30 PM28 °FClear.8 mph64%30.01 "Hg10 mi
9:00 PM28 °FClear.6 mph64%29.98 "Hg10 mi
8:30 PM28 °FClear.6 mph64%29.98 "Hg10 mi
8:00 PM28 °FClear.6 mph64%29.98 "Hg10 mi
7:30 PM32 °FSunny.3 mph55%29.98 "Hg10 mi
7:00 PM34 °FSunny.3 mph51%29.98 "Hg10 mi
6:30 PM36 °FSunny.3 mph48%29.98 "Hg10 mi
6:00 PM37 °FSunny.6 mph41%29.95 "Hg10 mi
5:30 PM39 °FSunny.8 mph39%29.95 "Hg10 mi
5:00 PM39 °FSunny.8 mph39%29.95 "Hg10 mi
4:30 PM39 °FSunny.8 mph39%29.92 "Hg10 mi
4:00 PM39 °FSunny.6 mph39%29.92 "Hg10 mi
3:30 PM39 °FSunny.6 mph39%29.92 "Hg10 mi
3:00 PM39 °FSunny.6 mph39%29.92 "Hg10 mi
2:30 PM39 °FSunny.6 mph39%29.89 "Hg10 mi
2:00 PM39 °FSunny.6 mph39%29.89 "Hg10 mi
1:30 PM39 °FSunny.8 mph39%29.89 "Hg10 mi
1:00 PM39 °FSunny.6 mph36%29.89 "Hg10 mi
12:30 PM37 °FPassing clouds.6 mph41%29.89 "HgN/A
12:00 PM36 °FSunny.8 mph44%29.89 "Hg10 mi
11:30 AM34 °FSunny.8 mph44%29.89 "Hg10 mi
11:00 AM34 °FSunny.10 mph48%29.89 "Hg10 mi
10:30 AM32 °FSunny.10 mph51%29.86 "Hg10 mi
10:00 AM30 °FSunny.8 mph51%29.86 "Hg10 mi
Weather by CustomWeather, © 2014

See weather overviewHow to use our weather pages